Other Surface Observations
Issued by NWS

Current Version | Previous Version | Text Only | Print | Product List | Glossary On
Versions: 1 2 3 4 5 6 7 8 9 10 11 12 13 14 15 16 17 18 19 20 21 22 23 24 25 26 27 28 29 30 31 32 33 34 35 36 37 38 39 40 41 42 43 44 45 46 47 48 49 50
000
SXUS52 KTAE 180718
OSOTAE
OSOTAE
North Florida/South Alabama/Southwest Georgia Weather Roundup
National Weather Service Tallahassee Florida
300 AM EDT SAT APR 18 2015

Note: "fair" indicates few or no clouds below 12,000 feet with no
significant weather and/or obstructions to visibility.

!FLZ017-115-028-034-025-180800
...North Florida...

CITY           SKY/WX    TMP DP  RH WIND       PRES   REMARKS
TALLAHASSEE    MOCLDY    74  72  93 S3        29.93F
APALACHICOLA   CLOUDY    76  71  85 SW3       29.93S
PERRY          CLOUDY    71  69  96 CALM      29.95F
CROSS CITY       N/A    N/A N/A N/A MISG      29.96F
JACKSONVILLE   MOCLDY    65  64  97 CALM      29.96F
$$

!FLZ112-006-005-002-011-180800
...Florida Panhandle...

CITY           SKY/WX    TMP DP  RH WIND       PRES   REMARKS
MARIANNA       FOG       66  66 100 CALM      29.92F VSB 1
BONIFAY        FOG       64  64 100 CALM      29.93F VSB 1
PANAMA CITY NW FAIR      70  69  97 CALM      29.92F FOG
TYNDALL AFB    MOCLDY    70  68  94 CALM      29.93S FOG
TYND DRONE APT FAIR      70  70 100 SW2       29.92F FOG
DE FUNIAK SPR  CLOUDY    66  66 100 CALM      29.94F
EGLIN AFB      MOCLDY    71  70  95 SW5       29.93S
DESTIN         CLOUDY    73  71  93 CALM      29.92F
HURLBURT       CLOUDY    72  64  78 CALM      29.92S
CRESTVIEW      FOG       66  66 100 CALM      29.95R VSB 3/4
PENSACOLA      PTCLDY    69  68  96 CALM      29.92F
$$

!ALZ063-066-180800
...South Alabama...

CITY           SKY/WX    TMP DP  RH WIND       PRES   REMARKS
DOTHAN         FOG       61  61 100 N3        29.96F VSB 1/4
OZARK CAIRNS   MOCLDY    61  58  90 N5        29.93F
FT RUCKER HELI FOG       61  60  97 CALM      29.93F VSB 1/2
RUCKER HELI 3  NOT AVBL
RUCKER HELI 2  CLOUDY    59  59 100 N3        29.89F
FLORALA APT    CLOUDY    63  61  94 CALM      29.95S
ANDALUSIA      FOG       64  61  88 CALM      29.94S VSB 1/2
TROY           CLOUDY    63  61  93 CALM      29.95F FOG
EUFALA         CLOUDY    63  63 100 CALM      29.93F FOG
MOBILE         CLOUDY    68  68 100 E7        29.93F FOG
$$

!GAZ120>161-180800
...Southwest and South Central Georgia...

CITY           SKY/WX    TMP DP  RH WIND       PRES   REMARKS
THOMASVILLE    CLOUDY    68  68 100 CALM      29.95S FOG
BAINBRIDGE     FOG       68  68 100 CALM      29.94F VSB 1/4
MOODY AFB      PTCLDY    67  66  95 SE2       29.95S
VALDOSTA       MOCLDY    67  67 100 S3        29.95F
MOULTRIE       MOCLDY    66 N/A N/A CALM      29.96S FOG
BLAKELY        CLOUDY    66  66 100 CALM      29.94F
ALBANY         CLOUDY    69  67  93 S3        29.96S FOG
TIFTON         CLOUDY    67  66  99 SE5       29.94F
FITZGERALD     PTSUNNY   69  66  91 CALM      29.97F
CORDELE        CLOUDY    69  68  95 S3        29.95F
AMERICUS       CLOUDY    64  64 100 S3        29.95F
HOMERVILLE     CLOUDY    70  68  94 SE3       29.97S
$$

!GMZ750-755-770-775-180800
...Coastal and Buoy Obs...

STATION/POSITION TIME  TEMP    WIND        PRES    VSBY  WAVE
                       AIR SEA DIR/SP/G                  HT/PER
                 (UTC) (F)     (DEG/KT/KT) (MB)    (MI)  (FT/S)
KEATON BEACH     0700   74     150/  5/  7 1014.2F
CEDAR KEY        0700   76     200/  4/  5 1014.9F
C TOWER          0700   74     180/ 11/ 12 1013.5F
APALACHICOLA BUO 0650   76 76  200/  8/ 10 1014.2F         1/ 5
PANAMA CITY BUOY 0650   76 77  180/  6/  6 1014.2F         3/ 5
MOBILE BUOY      0650   74 74  160/  4/  6 1013.6F         3/ 5
ORANGE BCH AL BU 0650   72 73   50/  2/  4 1012.7F         3/ 6
$$



USA.gov is the U.S. government's official web portal to all federal, state and local government web resources and services.